Regional Weather Roundup
Issued by NWS Jackson, KY

Home | Current Version | Previous Version | Graphics & Text | Print | Product List | Glossary On
Versions: 1 2 3 4 5 6 7 8 9 10 11 12 13 14 15 16 17 18 19 20 21 22 23 24 25 26 27
000
ASUS43 KJKL 010110
RWRJKL

EAST KENTUCKY HOURLY WEATHER ROUNDUP
NATIONAL WEATHER SERVICE JACKSON KY
900 PM EDT SAT APR 30 2016

NOTE: "FAIR" INDICATES FEW OR NO CLOUDS BELOW 12,000 FEET WITH
NO SIGNIFICANT WEATHER AND/OR OBSTRUCTIONS TO VISIBILITY.

* THESE REPORTS ARE NOT UNDER NWS QUALITY CONTROL AND MAY NOT
  REPORT WEATHER SUCH AS PRECIPITATION AND FOG.

KYZ079-080-083-085-087-088-110-112-115-119-120-010200
...EASTERN KENTUCKY...

CITY           SKY/WX    TMP DP  RH WIND       PRES   REMARKS
JACKSON        CLOUDY    61  58  90 CALM      29.96R
LONDON         RAIN      62  60  93 NW3       29.97R FOG
SOMERSET*      HVY RAIN  61  61 100 SE3       29.98R
MONTICELLO*    LGT RAIN  65  64  97 W7        29.97R
WILLIAMSBURG*  CLOUDY    59  59 100 CALM      29.97R
MIDDLESBORO*   HVY RAIN  63  62  96 S3        30.01R
HARLAN APT*    CLOUDY    63  57  82 CALM      30.01R
HAZARD APT*    RAIN      61  61 100 CALM      29.96R
PIKE CO APT*   MOCLDY    62  60  94 S8        29.98S
BIG SANDY APT* MOCLDY    62  60  94 SE6       29.97S
MOREHEAD APT*  CLOUDY    61  59  94 CALM      29.97R
$$

KYZ035-036-041-042-044-050-067-078-099-010200
...CENTRAL KENTUCKY...

CITY           SKY/WX    TMP DP  RH WIND       PRES   REMARKS
MT STERLING*   CLOUDY    61  59  94 CALM      29.97R
FLEMING/MASON* RAIN      59  58  98 CALM      29.97R
DANVILLE*      LGT RAIN  61  61 100 CALM      29.96R
RICHMOND*      CLOUDY    63  59  88 CALM      29.94S
LEXINGTON      LGT RAIN  62  59  90 SE7       29.94S
FRANKFORT      LGT RAIN  63  60  90 SE5       29.91F
LOUISVILLE     CLOUDY    66  63  90 SE6       29.89S
LEBANON*       LGT RAIN  63  63 100 SE6       29.93S
BOWLING GREEN  CLOUDY    68  66  93 CALM      29.89R
$$

KYZ091>093-OHZ055-061-077-WVZ005-015-034-035-042-010200
...SOUTHERN OHIO/WEST VIRGINIA...

CITY           SKY/WX    TMP DP  RH WIND       PRES   REMARKS
COVINGTON      CLOUDY    60  59  96 SE9       29.91F
COLUMBUS       LGT RAIN  55  55 100 SE5       29.95F
DAYTON         LGT RAIN  55  55 100 SE13      29.90F FOG
WILMINGTON     LGT RAIN  56  55  97 SE6       29.94S FOG
HUNTINGTON       N/A     60  58  92 E3        29.94F FOG
CHARLESTON     LGT RAIN  63  59  87 CALM      29.96F
PINEVILLE*     LGT RAIN  62  56  81 MISG      30.09R
BECKLEY        LGT RAIN  56  53  90 SE17G29   30.05F
$$

VAZ002-007-008-TNZ017-027-036-066-071-010200
...SOUTHWEST VIRGINIA/EAST TENNESSEE...

CITY           SKY/WX    TMP DP  RH WIND       PRES   REMARKS
WISE*          CLOUDY    61  52  72 SE5       30.07R
BRISTOL        CLOUDY    62  60  93 CALM      30.03S
MORRISTOWN*    MOCLDY    64  61  88 CALM      30.01R
SEVIERVILLE*   MOCLDY    63  61  94 SE3       29.99S
KNOXVILLE      HVY RAIN  64  62  93 N8        29.98R FOG
OAK RIDGE      HVY RAIN  64  62  93 CALM      30.00R FOG
CROSSVILLE     CLOUDY    65  60  84 SE7       29.97F
NASHVILLE      LGT RAIN  69  66  90 S5        29.88R
$$

...KEY TO REMARKS...
VSB - VISIBILITY IN MILES
WCI - WIND CHILL INDEX
HX  - HEAT INDEX

$$




USA.gov is the U.S. government's official web portal to all federal, state and local government web resources and services.